AFR601 TFFF-TFFR

Flight info

Callsign AFR601
Flight time 0h 29m
Altitude 16000
Route LIDOS2R LIDOS DCT GONES DCT PPR
Aircraft A343/H-SDE2E3FGHIJ4J5M1RWXY/LB1D1

Departure

Time 2026-04-29 22:13
Airport Martinique Aimé Césaire International Airport (TFFF)

Arrival

Time 2026-04-29 22:42
Airport Maryse Condé International Airport (TFFR)
Time Latitude Longitude Altitude Speed Heading
2026-04-29 22:02 14.59436 -60.99977 22 ft 0 kts
2026-04-29 22:05 14.59414 -60.99980 26 ft 4 kts
2026-04-29 22:05 14.59391 -60.99983 26 ft 4 kts 359°
2026-04-29 22:05 14.59365 -60.99953 29 ft 4 kts 260°
2026-04-29 22:06 14.59369 -60.99935 29 ft 0 kts 260°
2026-04-29 22:07 14.59366 -60.99953 29 ft 7 kts 260°
2026-04-29 22:08 14.59354 -61.00011 26 ft 9 kts 251°
2026-04-29 22:08 14.59301 -61.00039 27 ft 11 kts 180°
2026-04-29 22:08 14.59214 -61.00025 25 ft 14 kts 171°
2026-04-29 22:08 14.59148 -61.00077 21 ft 14 kts 251°
2026-04-29 22:09 14.59129 -61.00187 20 ft 17 kts 260°
2026-04-29 22:09 14.59109 -61.00310 20 ft 18 kts 260°
2026-04-29 22:09 14.59087 -61.00443 19 ft 20 kts 260°
2026-04-29 22:09 14.59062 -61.00590 22 ft 21 kts 260°
2026-04-29 22:10 14.59038 -61.00734 25 ft 20 kts 260°
2026-04-29 22:10 14.59014 -61.00874 27 ft 20 kts 260°
2026-04-29 22:10 14.58989 -61.01023 26 ft 22 kts 260°
2026-04-29 22:10 14.58962 -61.01176 29 ft 21 kts 259°
2026-04-29 22:11 14.58933 -61.01331 28 ft 23 kts 260°
2026-04-29 22:11 14.58905 -61.01499 31 ft 25 kts 260°
2026-04-29 22:11 14.58884 -61.01621 26 ft 11 kts 260°
2026-04-29 22:11 14.58870 -61.01709 25 ft 14 kts 265°
2026-04-29 22:12 14.58913 -61.01778 23 ft 9 kts 301°
2026-04-29 22:12 14.58883 -61.01825 20 ft 9 kts 193°
2026-04-29 22:12 14.58849 -61.01791 20 ft 6 kts 95°
2026-04-29 22:12 14.58869 -61.01713 24 ft 26 kts 79°
2026-04-29 22:13 14.58936 -61.01318 29 ft 85 kts 80°
2026-04-29 22:13 14.59068 -61.00542 55 ft 132 kts 80°
2026-04-29 22:13 14.59232 -60.99592 516 ft 136 kts 78°
2026-04-29 22:13 14.59411 -60.98598 1011 ft 144 kts 80°
2026-04-29 22:14 14.59591 -60.97571 1588 ft 152 kts 82°
2026-04-29 22:14 14.59799 -60.96406 1977 ft 178 kts 80°
2026-04-29 22:14 14.60037 -60.95056 2397 ft 202 kts 79°
2026-04-29 22:14 14.60630 -60.93611 2797 ft 235 kts 54°
2026-04-29 22:15 14.62001 -60.92615 3584 ft 253 kts 18°
2026-04-29 22:15 14.63789 -60.92634 4426 ft 268 kts 343°
2026-04-29 22:15 14.65401 -60.93628 5320 ft 274 kts 321°
2026-04-29 22:15 14.66903 -60.94887 6140 ft 284 kts 320°
2026-04-29 22:16 14.68472 -60.96155 7001 ft 288 kts 322°
2026-04-29 22:16 14.70093 -60.97400 7904 ft 291 kts 325°
2026-04-29 22:16 14.71750 -60.98627 8838 ft 293 kts 325°
2026-04-29 22:16 14.73426 -60.99846 9775 ft 296 kts 326°
2026-04-29 22:17 14.75108 -61.01058 10498 ft 304 kts 326°
2026-04-29 22:17 14.76904 -61.02347 10871 ft 324 kts 326°
2026-04-29 22:17 14.78818 -61.03716 11230 ft 343 kts 326°
2026-04-29 22:17 14.80826 -61.05150 11679 ft 357 kts 326°
2026-04-29 22:18 14.82914 -61.06642 12036 ft 372 kts 326°
2026-04-29 22:18 14.85095 -61.08200 12341 ft 387 kts 326°
2026-04-29 22:18 14.87326 -61.09793 12616 ft 401 kts 326°
2026-04-29 22:18 14.89644 -61.11450 13118 ft 407 kts 326°
2026-04-29 22:19 14.91987 -61.13124 13730 ft 409 kts 326°
2026-04-29 22:19 14.94345 -61.14810 14284 ft 412 kts 325°
2026-04-29 22:19 14.96709 -61.16500 14820 ft 415 kts 325°
2026-04-29 22:19 14.99102 -61.18211 15325 ft 419 kts 325°
2026-04-29 22:20 15.01515 -61.19937 15759 ft 423 kts 325°
2026-04-29 22:20 15.03943 -61.21675 15923 ft 423 kts 324°
2026-04-29 22:20 15.06366 -61.23407 15949 ft 423 kts 324°
2026-04-29 22:20 15.08752 -61.25115 15953 ft 423 kts 324°
2026-04-29 22:21 15.11172 -61.26848 15944 ft 423 kts 324°
2026-04-29 22:21 15.13595 -61.28584 15944 ft 423 kts 324°
2026-04-29 22:21 15.16026 -61.30326 15948 ft 423 kts 324°
2026-04-29 22:21 15.18439 -61.32055 15948 ft 423 kts 324°
2026-04-29 22:22 15.20870 -61.33797 15949 ft 423 kts 324°
2026-04-29 22:22 15.23296 -61.35537 15958 ft 423 kts 324°
2026-04-29 22:22 15.25689 -61.37254 15947 ft 423 kts 324°
2026-04-29 22:22 15.28103 -61.38986 15966 ft 422 kts 324°
2026-04-29 22:23 15.30528 -61.40727 15953 ft 423 kts 324°
2026-04-29 22:23 15.32948 -61.42465 15952 ft 423 kts 324°
2026-04-29 22:23 15.35369 -61.44203 15952 ft 423 kts 324°
2026-04-29 22:23 15.37762 -61.45923 15952 ft 423 kts 324°
2026-04-29 22:24 15.40188 -61.47665 15945 ft 422 kts 324°
2026-04-29 22:24 15.42603 -61.49401 15962 ft 421 kts 324°
2026-04-29 22:24 15.45012 -61.51133 15944 ft 421 kts 324°
2026-04-29 22:24 15.47419 -61.52864 15954 ft 421 kts 324°
2026-04-29 22:25 15.49794 -61.54572 15955 ft 405 kts 324°
2026-04-29 22:25 15.52059 -61.56200 15955 ft 390 kts 324°
2026-04-29 22:25 15.54254 -61.57780 15951 ft 388 kts 324°
2026-04-29 22:25 15.56478 -61.59382 15956 ft 389 kts 323°
2026-04-29 22:26 15.58708 -61.60989 15952 ft 389 kts 324°
2026-04-29 22:26 15.60939 -61.62596 15952 ft 389 kts 324°
2026-04-29 22:26 15.63165 -61.64200 15949 ft 389 kts 324°
2026-04-29 22:26 15.65364 -61.65786 15949 ft 389 kts 324°
2026-04-29 22:27 15.67593 -61.67393 15965 ft 389 kts 324°
2026-04-29 22:27 15.69813 -61.68993 15832 ft 386 kts 324°
2026-04-29 22:27 15.72008 -61.70576 15583 ft 381 kts 324°
2026-04-29 22:27 15.74183 -61.72145 15358 ft 380 kts 323°
2026-04-29 22:28 15.76344 -61.73705 15121 ft 378 kts 323°
2026-04-29 22:28 15.78502 -61.75264 14892 ft 376 kts 324°
2026-04-29 22:28 15.80628 -61.76798 14664 ft 375 kts 323°
2026-04-29 22:28 15.82753 -61.78333 14357 ft 369 kts 323°
2026-04-29 22:29 15.84862 -61.79856 13918 ft 369 kts 323°
2026-04-29 22:29 15.86974 -61.81383 13415 ft 367 kts 324°
2026-04-29 22:29 15.89063 -61.82893 12929 ft 365 kts 324°
2026-04-29 22:29 15.91145 -61.84399 12451 ft 363 kts 324°
2026-04-29 22:30 15.93212 -61.85894 11985 ft 360 kts 324°
2026-04-29 22:30 15.95237 -61.87359 11521 ft 358 kts 325°
2026-04-29 22:30 15.97282 -61.88839 11054 ft 356 kts 325°
2026-04-29 22:30 15.99308 -61.90305 10596 ft 353 kts 326°
2026-04-29 22:31 16.01300 -61.91740 10455 ft 341 kts 327°
2026-04-29 22:31 16.03382 -61.92807 10305 ft 327 kts 346°
2026-04-29 22:31 16.05591 -61.93089 10185 ft 315 kts 360°
2026-04-29 22:31 16.07722 -61.93097 10035 ft 306 kts
2026-04-29 22:32 16.09820 -61.93083 9844 ft 297 kts
2026-04-29 22:32 16.11843 -61.93074 9517 ft 284 kts
2026-04-29 22:32 16.13809 -61.93068 9178 ft 280 kts
2026-04-29 22:32 16.15760 -61.93064 8842 ft 280 kts
2026-04-29 22:33 16.17709 -61.93061 8486 ft 278 kts
2026-04-29 22:33 16.19610 -61.93060 8163 ft 277 kts
2026-04-29 22:33 16.21538 -61.93059 7851 ft 276 kts
2026-04-29 22:33 16.23465 -61.93059 7522 ft 276 kts
2026-04-29 22:34 16.25384 -61.93052 7231 ft 275 kts
2026-04-29 22:34 16.27255 -61.92729 6909 ft 272 kts 22°
2026-04-29 22:34 16.28823 -61.91682 6598 ft 267 kts 48°
2026-04-29 22:34 16.29886 -61.90158 6342 ft 262 kts 61°
2026-04-29 22:35 16.30798 -61.88518 6022 ft 261 kts 62°
2026-04-29 22:35 16.31697 -61.86871 5679 ft 261 kts 62°
2026-04-29 22:35 16.32602 -61.85228 5302 ft 261 kts 62°
2026-04-29 22:35 16.33430 -61.83581 4878 ft 249 kts 70°
2026-04-29 22:36 16.33815 -61.81880 4455 ft 236 kts 89°
2026-04-29 22:36 16.33658 -61.80221 4033 ft 226 kts 102°
2026-04-29 22:36 16.33320 -61.78674 3629 ft 219 kts 103°
2026-04-29 22:36 16.32956 -61.77144 3225 ft 215 kts 105°
2026-04-29 22:37 16.32583 -61.75654 2861 ft 210 kts 103°
2026-04-29 22:37 16.32213 -61.74196 2534 ft 208 kts 105°
2026-04-29 22:37 16.31850 -61.72760 2370 ft 200 kts 105°
2026-04-29 22:37 16.31505 -61.71423 2242 ft 187 kts 105°
2026-04-29 22:38 16.31180 -61.70169 2142 ft 169 kts 105°
2026-04-29 22:38 16.30892 -61.69054 2003 ft 154 kts 105°
2026-04-29 22:38 16.30614 -61.68030 1857 ft 141 kts 109°
2026-04-29 22:38 16.30224 -61.67097 1814 ft 141 kts 114°
2026-04-29 22:39 16.29798 -61.66181 1806 ft 142 kts 115°
2026-04-29 22:39 16.29360 -61.65247 1756 ft 144 kts 116°
2026-04-29 22:39 16.28962 -61.64300 1646 ft 142 kts 111°
2026-04-29 22:39 16.28618 -61.63356 1422 ft 139 kts 108°
2026-04-29 22:40 16.28327 -61.62405 1197 ft 137 kts 106°
2026-04-29 22:40 16.28107 -61.61465 1036 ft 134 kts 102°
2026-04-29 22:40 16.27910 -61.60513 918 ft 135 kts 101°
2026-04-29 22:40 16.27721 -61.59541 871 ft 138 kts 102°
2026-04-29 22:41 16.27524 -61.58559 758 ft 137 kts 101°
2026-04-29 22:41 16.27352 -61.57609 525 ft 129 kts 101°
2026-04-29 22:41 16.27186 -61.56693 408 ft 133 kts 104°
2026-04-29 22:41 16.27008 -61.55740 242 ft 136 kts 102°
2026-04-29 22:42 16.26823 -61.54797 56 ft 131 kts 102°
2026-04-29 22:42 16.26658 -61.53891 26 ft 114 kts 101°
2026-04-29 22:42 16.26544 -61.53268 26 ft 61 kts 101°
2026-04-29 22:42 16.26498 -61.53013 25 ft 15 kts 101°
2026-04-29 22:43 16.26478 -61.52907 25 ft 15 kts 101°
2026-04-29 22:43 16.26460 -61.52807 29 ft 14 kts 101°
2026-04-29 22:43 16.26441 -61.52708 25 ft 14 kts 101°
2026-04-29 22:43 16.26423 -61.52607 26 ft 14 kts 101°
2026-04-29 22:44 16.26405 -61.52509 26 ft 13 kts 101°
2026-04-29 22:44 16.26388 -61.52421 28 ft 12 kts 101°
2026-04-29 22:44 16.26373 -61.52340 30 ft 12 kts 101°
2026-04-29 22:44 16.26375 -61.52256 31 ft 11 kts 59°
2026-04-29 22:45 16.26448 -61.52225 30 ft 12 kts 11°
2026-04-29 22:45 16.26549 -61.52205 30 ft 18 kts 11°
2026-04-29 22:45 16.26661 -61.52184 29 ft 14 kts
2026-04-29 22:45 16.26728 -61.52238 29 ft 14 kts 289°
2026-04-29 22:46 16.26750 -61.52341 30 ft 15 kts 280°
2026-04-29 22:46 16.26771 -61.52456 27 ft 17 kts 281°
2026-04-29 22:46 16.26784 -61.52530 27 ft 9 kts 281°
2026-04-29 22:46 16.26819 -61.52557 27 ft 6 kts
2026-04-29 22:47 16.26856 -61.52543 28 ft 6 kts 11°
2026-04-29 22:47 16.26877 -61.52539 30 ft 2 kts 11°
2026-04-29 22:47 16.26878 -61.52539 30 ft 0 kts 11°